Location: Niedergestelen
(46.3129°N, 7.7822°E)
Time: 14:27:42
(UTC+00:00)

USA 267 - Pass Details

Date: 01 December 2020
Orbit: 1100 x 1107 km, 123.0° (Epoch: 18 January)

Event Time Altitude Azimuth Distance (km) Brightness Sun altitude
Exits shadow 19:21:25 56° 288° (WNW) 1,289 3.7 -36.8°
Drops below altitude 10° 19:26:31 10° 306° (NW) 2,967 6.1 -37.6°
Sets 19:29:01 0° 308° (NW) 3,928 6.9 -38.1°
